contact:dominique.lefevre@mio.osupytheas.fr, maurice.libes@osupytheas.fr, didier.mallarino@osupytheas.fr
Project:EMSO http://www.emso-fr.org/EMSO-France
Depth: 2436.0 m
Title:EMSO Ligure Ouest : Data MII capteur MICROCAT
DateTime_Computer,Latitude,Longitude,Temperature,Conductivity,Pressure,DateTime_Instrument
DateTime_Computer,Latitude,Longitude,degC,S m-1,dbar,DateTime_Instrument
2019-07-13T00:00:23Z,42.805,6.029,13.2956,4.59955,2469.83,2019-7-13T02:00:41Z
2019-07-13T00:03:26Z,42.805,6.029,13.2959,4.59956,2469.876,2019-7-13T02:03:44Z
2019-07-13T00:06:29Z,42.805,6.029,13.2958,4.59956,2469.876,2019-7-13T02:06:47Z
2019-07-13T00:09:32Z,42.805,6.029,13.2957,4.59956,2469.83,2019-7-13T02:09:50Z
2019-07-13T00:12:35Z,42.805,6.029,13.2965,4.59956,2469.83,2019-7-13T02:12:54Z
2019-07-13T00:15:39Z,42.805,6.029,13.2959,4.59956,2469.83,2019-7-13T02:15:57Z
2019-07-13T00:18:42Z,42.805,6.029,13.2953,4.59960,2469.853,2019-7-13T02:19:00Z
2019-07-13T00:21:45Z,42.805,6.029,13.2957,4.59956,2469.853,2019-7-13T02:22:03Z
2019-07-13T00:24:48Z,42.805,6.029,13.2958,4.59955,2469.83,2019-7-13T02:25:06Z
2019-07-13T00:27:51Z,42.805,6.029,13.2963,4.59957,2469.876,2019-7-13T02:28:10Z
2019-07-13T00:30:55Z,42.805,6.029,13.2955,4.59957,2469.806,2019-7-13T02:31:13Z
2019-07-13T00:33:58Z,42.805,6.029,13.2959,4.59959,2469.83,2019-7-13T02:34:16Z
2019-07-13T00:37:01Z,42.805,6.029,13.2958,4.59956,2469.853,2019-7-13T02:37:19Z
2019-07-13T00:40:04Z,42.805,6.029,13.2964,4.59956,2469.867,2019-7-13T02:40:22Z
2019-07-13T00:43:08Z,42.805,6.029,13.2962,4.59958,2469.844,2019-7-13T02:43:26Z
2019-07-13T00:46:11Z,42.805,6.029,13.2961,4.59956,2469.867,2019-7-13T02:46:29Z
2019-07-13T00:49:14Z,42.805,6.029,13.2959,4.59955,2469.867,2019-7-13T02:49:32Z
2019-07-13T00:52:17Z,42.805,6.029,13.2955,4.59956,2469.867,2019-7-13T02:52:35Z
2019-07-13T00:55:20Z,42.805,6.029,13.2958,4.59957,2469.867,2019-7-13T02:55:38Z
2019-07-13T00:58:23Z,42.805,6.029,13.2957,4.59958,2469.89,2019-7-13T02:58:42Z
2019-07-13T01:01:27Z,42.805,6.029,13.2964,4.59956,2469.867,2019-7-13T03:01:45Z
2019-07-13T01:04:30Z,42.805,6.029,13.2957,4.59957,2469.876,2019-7-13T03:04:48Z
2019-07-13T01:07:33Z,42.805,6.029,13.2957,4.59956,2469.876,2019-7-13T03:07:51Z
2019-07-13T01:10:36Z,42.805,6.029,13.2954,4.59956,2469.867,2019-7-13T03:10:54Z
2019-07-13T01:13:39Z,42.805,6.029,13.2961,4.59957,2469.89,2019-7-13T03:13:58Z
2019-07-13T01:16:43Z,42.805,6.029,13.2964,4.59956,2469.844,2019-7-13T03:17:01Z
2019-07-13T01:19:46Z,42.805,6.029,13.2961,4.59957,2469.853,2019-7-13T03:20:04Z
2019-07-13T01:22:49Z,42.805,6.029,13.2960,4.59957,2469.89,2019-7-13T03:23:07Z
2019-07-13T01:25:52Z,42.805,6.029,13.2959,4.59957,2469.853,2019-7-13T03:26:11Z
2019-07-13T01:28:56Z,42.805,6.029,13.2959,4.59958,2469.876,2019-7-13T03:29:14Z
2019-07-13T01:31:59Z,42.805,6.029,13.2961,4.59956,2469.876,2019-7-13T03:32:17Z
2019-07-13T01:35:02Z,42.805,6.029,13.2957,4.59956,2469.876,2019-7-13T03:35:20Z
2019-07-13T01:38:05Z,42.805,6.029,13.2955,4.59957,2469.89,2019-7-13T03:38:23Z
2019-07-13T01:41:09Z,42.805,6.029,13.2957,4.59957,2469.9,2019-7-13T03:41:27Z
2019-07-13T01:44:12Z,42.805,6.029,13.2958,4.59956,2469.89,2019-7-13T03:44:30Z
2019-07-13T01:47:15Z,42.805,6.029,13.2957,4.59961,2469.876,2019-7-13T03:47:33Z
2019-07-13T01:50:18Z,42.805,6.029,13.2958,4.59956,2469.89,2019-7-13T03:50:37Z
2019-07-13T01:53:22Z,42.805,6.029,13.2958,4.59956,2469.914,2019-7-13T03:53:40Z
2019-07-13T01:56:25Z,42.805,6.029,13.2959,4.59958,2469.9,2019-7-13T03:56:43Z
2019-07-13T01:59:28Z,42.805,6.029,13.2957,4.59957,2469.89,2019-7-13T03:59:46Z
2019-07-13T02:02:31Z,42.805,6.029,13.2961,4.59956,2469.89,2019-7-13T04:02:50Z
2019-07-13T02:05:35Z,42.805,6.029,13.2958,4.59956,2469.89,2019-7-13T04:05:53Z
2019-07-13T02:08:38Z,42.805,6.029,13.2962,4.59957,2469.853,2019-7-13T04:08:56Z
2019-07-13T02:11:41Z,42.805,6.029,13.2958,4.59956,2469.9,2019-7-13T04:11:59Z
2019-07-13T02:14:45Z,42.805,6.029,13.2962,4.59957,2469.9,2019-7-13T04:15:03Z
2019-07-13T02:17:48Z,42.805,6.029,13.2963,4.59958,2469.937,2019-7-13T04:18:06Z
2019-07-13T02:20:51Z,42.805,6.029,13.2954,4.59956,2469.914,2019-7-13T04:21:09Z
2019-07-13T02:23:55Z,42.805,6.029,13.2954,4.59957,2469.914,2019-7-13T04:24:13Z
2019-07-13T02:26:58Z,42.805,6.029,13.2961,4.59956,2469.923,2019-7-13T04:27:16Z
2019-07-13T02:30:01Z,42.805,6.029,13.2964,4.59956,2469.9,2019-7-13T04:30:19Z
2019-07-13T02:33:04Z,42.805,6.029,13.2958,4.59957,2469.923,2019-7-13T04:33:23Z
2019-07-13T02:36:08Z,42.805,6.029,13.2957,4.59958,2469.923,2019-7-13T04:36:26Z
2019-07-13T02:39:11Z,42.805,6.029,13.2957,4.59956,2469.9,2019-7-13T04:39:29Z
2019-07-13T02:42:14Z,42.805,6.029,13.2960,4.59956,2469.914,2019-7-13T04:42:33Z
2019-07-13T02:45:18Z,42.805,6.029,13.2961,4.59961,2469.9,2019-7-13T04:45:36Z
2019-07-13T02:48:21Z,42.805,6.029,13.2954,4.59957,2469.923,2019-7-13T04:48:39Z
2019-07-13T02:51:24Z,42.805,6.029,13.2961,4.59957,2469.937,2019-7-13T04:51:42Z
2019-07-13T02:54:27Z,42.805,6.029,13.2958,4.59956,2469.933,2019-7-13T04:54:46Z
2019-07-13T02:57:31Z,42.805,6.029,13.2957,4.59956,2469.9,2019-7-13T04:57:49Z
2019-07-13T03:00:34Z,42.805,6.029,13.2958,4.59956,2469.914,2019-7-13T05:00:52Z
2019-07-13T03:03:37Z,42.805,6.029,13.2960,4.59956,2469.937,2019-7-13T05:03:55Z
2019-07-13T03:06:40Z,42.805,6.029,13.2959,4.59959,2469.914,2019-7-13T05:06:59Z
2019-07-13T03:09:44Z,42.805,6.029,13.2957,4.59958,2469.937,2019-7-13T05:10:02Z
2019-07-13T03:12:47Z,42.805,6.029,13.2961,4.59958,2469.96,2019-7-13T05:13:05Z
2019-07-13T03:15:50Z,42.805,6.029,13.2960,4.59958,2469.9,2019-7-13T05:16:08Z
2019-07-13T03:18:53Z,42.805,6.029,13.2957,4.59956,2469.937,2019-7-13T05:19:12Z
2019-07-13T03:21:57Z,42.805,6.029,13.2960,4.59954,2469.923,2019-7-13T05:22:15Z
2019-07-13T03:25:00Z,42.805,6.029,13.2957,4.59956,2469.923,2019-7-13T05:25:18Z
2019-07-13T03:28:03Z,42.805,6.029,13.2955,4.59958,2469.9,2019-7-13T05:28:21Z
2019-07-13T03:31:07Z,42.805,6.029,13.2960,4.59956,2469.937,2019-7-13T05:31:25Z
2019-07-13T03:34:10Z,42.805,6.029,13.2958,4.59955,2469.876,2019-7-13T05:34:28Z
2019-07-13T03:37:13Z,42.805,6.029,13.2957,4.59955,2469.9,2019-7-13T05:37:31Z
2019-07-13T03:40:16Z,42.805,6.029,13.2953,4.59957,2469.9,2019-7-13T05:40:35Z
2019-07-13T03:43:20Z,42.805,6.029,13.2959,4.59956,2469.9,2019-7-13T05:43:38Z
2019-07-13T03:46:23Z,42.805,6.029,13.2957,4.59955,2469.937,2019-7-13T05:46:41Z
2019-07-13T03:49:27Z,42.805,6.029,13.2959,4.59959,2469.923,2019-7-13T05:49:45Z
2019-07-13T03:52:30Z,42.805,6.029,13.2957,4.59956,2469.9,2019-7-13T05:52:48Z
2019-07-13T03:55:33Z,42.805,6.029,13.2960,4.59956,2469.9,2019-7-13T05:55:51Z
2019-07-13T03:58:37Z,42.805,6.029,13.2958,4.59956,2469.937,2019-7-13T05:58:55Z
2019-07-13T04:01:40Z,42.805,6.029,13.2960,4.59955,2469.937,2019-7-13T06:01:58Z
2019-07-13T04:04:43Z,42.805,6.029,13.2955,4.59956,2469.937,2019-7-13T06:05:01Z
2019-07-13T04:07:46Z,42.805,6.029,13.2960,4.59956,2469.947,2019-7-13T06:08:05Z
2019-07-13T04:10:50Z,42.805,6.029,13.2959,4.59956,2469.923,2019-7-13T06:11:08Z
2019-07-13T04:13:53Z,42.805,6.029,13.2960,4.59956,2469.923,2019-7-13T06:14:11Z
2019-07-13T04:16:56Z,42.805,6.029,13.2960,4.59957,2469.923,2019-7-13T06:17:15Z
2019-07-13T04:20:00Z,42.805,6.029,13.2958,4.59955,2469.914,2019-7-13T06:20:18Z
2019-07-13T04:23:03Z,42.805,6.029,13.2958,4.59956,2469.923,2019-7-13T06:23:21Z
2019-07-13T04:26:06Z,42.805,6.029,13.2957,4.59956,2469.9,2019-7-13T06:26:24Z
2019-07-13T04:29:09Z,42.805,6.029,13.2957,4.59955,2469.937,2019-7-13T06:29:28Z
2019-07-13T04:32:13Z,42.805,6.029,13.2957,4.59956,2469.947,2019-7-13T06:32:31Z
2019-07-13T04:35:16Z,42.805,6.029,13.2954,4.59955,2469.937,2019-7-13T06:35:34Z
2019-07-13T04:38:19Z,42.805,6.029,13.2960,4.59956,2469.96,2019-7-13T06:38:38Z
2019-07-13T04:41:23Z,42.805,6.029,13.2958,4.59956,2469.96,2019-7-13T06:41:41Z
2019-07-13T04:44:26Z,42.805,6.029,13.2958,4.59956,2469.947,2019-7-13T06:44:44Z
2019-07-13T04:47:29Z,42.805,6.029,13.2961,4.59957,2469.96,2019-7-13T06:47:47Z
2019-07-13T04:50:33Z,42.805,6.029,13.2957,4.59957,2469.914,2019-7-13T06:50:51Z
2019-07-13T04:53:36Z,42.805,6.029,13.2957,4.59956,2469.937,2019-7-13T06:53:54Z
2019-07-13T04:56:39Z,42.805,6.029,13.2957,4.59956,2469.923,2019-7-13T06:56:57Z
2019-07-13T04:59:43Z,42.805,6.029,13.2958,4.59956,2469.923,2019-7-13T07:00:01Z
2019-07-13T05:02:46Z,42.805,6.029,13.2957,4.59956,2469.933,2019-7-13T07:03:04Z
2019-07-13T05:05:49Z,42.805,6.029,13.2958,4.59955,2469.89,2019-7-13T07:06:07Z
2019-07-13T05:08:52Z,42.805,6.029,13.2957,4.59957,2469.9,2019-7-13T07:09:11Z
2019-07-13T05:11:56Z,42.805,6.029,13.2961,4.59958,2469.937,2019-7-13T07:12:14Z
2019-07-13T05:14:59Z,42.805,6.029,13.2961,4.59956,2469.923,2019-7-13T07:15:17Z
2019-07-13T05:18:02Z,42.805,6.029,13.2959,4.59956,2469.937,2019-7-13T07:18:20Z
2019-07-13T05:21:06Z,42.805,6.029,13.2961,4.59957,2469.909,2019-7-13T07:21:24Z
2019-07-13T05:24:09Z,42.805,6.029,13.2958,4.59955,2469.937,2019-7-13T07:24:27Z
2019-07-13T05:27:12Z,42.805,6.029,13.2957,4.59956,2469.96,2019-7-13T07:27:30Z
2019-07-13T05:30:16Z,42.805,6.029,13.2956,4.59956,2469.937,2019-7-13T07:30:34Z
2019-07-13T05:33:19Z,42.805,6.029,13.2957,4.59956,2469.937,2019-7-13T07:33:37Z
2019-07-13T05:36:22Z,42.805,6.029,13.2959,4.59958,2469.876,2019-7-13T07:36:40Z
2019-07-13T05:39:25Z,42.805,6.029,13.2961,4.59955,2469.937,2019-7-13T07:39:44Z
2019-07-13T05:42:29Z,42.805,6.029,13.2957,4.59956,2469.923,2019-7-13T07:42:47Z
2019-07-13T05:45:32Z,42.805,6.029,13.2956,4.59956,2469.923,2019-7-13T07:45:51Z
2019-07-13T05:48:36Z,42.805,6.029,13.2959,4.59956,2469.923,2019-7-13T07:48:54Z
2019-07-13T05:51:39Z,42.805,6.029,13.2958,4.59956,2469.914,2019-7-13T07:51:57Z
2019-07-13T05:54:42Z,42.805,6.029,13.2956,4.59956,2469.914,2019-7-13T07:55:01Z
2019-07-13T05:57:46Z,42.805,6.029,13.2961,4.59958,2469.9,2019-7-13T07:58:04Z
2019-07-13T06:00:49Z,42.805,6.029,13.2959,4.59956,2469.876,2019-7-13T08:01:07Z
2019-07-13T06:03:52Z,42.805,6.029,13.2962,4.59958,2469.9,2019-7-13T08:04:11Z
2019-07-13T06:06:56Z,42.805,6.029,13.2961,4.59956,2469.937,2019-7-13T08:07:14Z
2019-07-13T06:09:59Z,42.805,6.029,13.2961,4.59956,2469.937,2019-7-13T08:10:17Z
2019-07-13T06:13:02Z,42.805,6.029,13.2957,4.59956,2469.9,2019-7-13T08:13:21Z
2019-07-13T06:16:06Z,42.805,6.029,13.2958,4.59956,2469.923,2019-7-13T08:16:24Z
2019-07-13T06:19:09Z,42.805,6.029,13.2963,4.59956,2469.937,2019-7-13T08:19:27Z
2019-07-13T06:22:13Z,42.805,6.029,13.2958,4.59956,2469.914,2019-7-13T08:22:31Z
2019-07-13T06:25:16Z,42.805,6.029,13.2956,4.59956,2469.89,2019-7-13T08:25:34Z
2019-07-13T06:28:19Z,42.805,6.029,13.2958,4.59956,2469.9,2019-7-13T08:28:37Z
2019-07-13T06:31:22Z,42.805,6.029,13.2961,4.59956,2469.9,2019-7-13T08:31:41Z
2019-07-13T06:34:26Z,42.805,6.029,13.2958,4.59958,2469.9,2019-7-13T08:34:44Z
2019-07-13T06:37:29Z,42.805,6.029,13.2957,4.59956,2469.914,2019-7-13T08:37:47Z
2019-07-13T06:40:33Z,42.805,6.029,13.2958,4.59955,2469.914,2019-7-13T08:40:51Z
2019-07-13T06:43:36Z,42.805,6.029,13.2958,4.59956,2469.914,2019-7-13T08:43:54Z
2019-07-13T06:46:39Z,42.805,6.029,13.2958,4.59956,2469.9,2019-7-13T08:46:58Z
2019-07-13T06:49:43Z,42.805,6.029,13.2963,4.59956,2469.914,2019-7-13T08:50:01Z
2019-07-13T06:52:46Z,42.805,6.029,13.2957,4.59955,2469.89,2019-7-13T08:53:04Z
2019-07-13T06:55:49Z,42.805,6.029,13.2958,4.59956,2469.876,2019-7-13T08:56:08Z
2019-07-13T06:58:53Z,42.805,6.029,13.2959,4.59956,2469.876,2019-7-13T08:59:11Z
2019-07-13T07:01:56Z,42.805,6.029,13.2960,4.59956,2469.89,2019-7-13T09:02:14Z
2019-07-13T07:04:59Z,42.805,6.029,13.2958,4.59955,2469.89,2019-7-13T09:05:18Z
2019-07-13T07:08:03Z,42.805,6.029,13.2958,4.59956,2469.853,2019-7-13T09:08:21Z
2019-07-13T07:11:06Z,42.805,6.029,13.2957,4.59956,2469.9,2019-7-13T09:11:24Z
2019-07-13T07:14:09Z,42.805,6.029,13.2957,4.59956,2469.876,2019-7-13T09:14:28Z
2019-07-13T07:17:13Z,42.805,6.029,13.2961,4.59956,2469.853,2019-7-13T09:17:31Z
2019-07-13T07:20:16Z,42.805,6.029,13.2956,4.59955,2469.83,2019-7-13T09:20:34Z
2019-07-13T07:23:19Z,42.805,6.029,13.2958,4.59956,2469.876,2019-7-13T09:23:37Z
2019-07-13T07:26:23Z,42.805,6.029,13.2959,4.59956,2469.876,2019-7-13T09:26:41Z
2019-07-13T07:29:26Z,42.805,6.029,13.2967,4.59956,2469.89,2019-7-13T09:29:44Z
2019-07-13T07:32:29Z,42.805,6.029,13.2960,4.59956,2469.876,2019-7-13T09:32:47Z
2019-07-13T07:35:32Z,42.805,6.029,13.2960,4.59957,2469.853,2019-7-13T09:35:51Z
2019-07-13T07:38:36Z,42.805,6.029,13.2955,4.59956,2469.853,2019-7-13T09:38:54Z
2019-07-13T07:41:39Z,42.805,6.029,13.2961,4.59956,2469.83,2019-7-13T09:41:57Z
2019-07-13T07:44:42Z,42.805,6.029,13.2958,4.59956,2469.83,2019-7-13T09:45:01Z
2019-07-13T07:47:46Z,42.805,6.029,13.2958,4.59956,2469.867,2019-7-13T09:48:04Z
2019-07-13T07:50:49Z,42.805,6.029,13.2957,4.59954,2469.853,2019-7-13T09:51:07Z
2019-07-13T07:53:52Z,42.805,6.029,13.2957,4.59958,2469.904,2019-7-13T09:54:10Z
2019-07-13T07:56:56Z,42.805,6.029,13.2958,4.59960,2469.844,2019-7-13T09:57:14Z
2019-07-13T07:59:59Z,42.805,6.029,13.2958,4.59955,2469.89,2019-7-13T10:00:17Z
2019-07-13T08:03:02Z,42.805,6.029,13.2960,4.59955,2469.83,2019-7-13T10:03:20Z
2019-07-13T08:06:06Z,42.805,6.029,13.2956,4.59954,2469.853,2019-7-13T10:06:24Z
2019-07-13T08:09:09Z,42.805,6.029,13.2956,4.59954,2469.83,2019-7-13T10:09:27Z
2019-07-13T08:12:12Z,42.805,6.029,13.2955,4.59956,2469.821,2019-7-13T10:12:30Z
2019-07-13T08:15:15Z,42.805,6.029,13.2960,4.59954,2469.844,2019-7-13T10:15:34Z
2019-07-13T08:18:19Z,42.805,6.029,13.2957,4.59958,2469.821,2019-7-13T10:18:37Z
2019-07-13T08:21:22Z,42.805,6.029,13.2957,4.59954,2469.797,2019-7-13T10:21:40Z
2019-07-13T08:24:25Z,42.805,6.029,13.2960,4.59958,2469.867,2019-7-13T10:24:44Z
2019-07-13T08:27:29Z,42.805,6.029,13.2956,4.59954,2469.821,2019-7-13T10:27:47Z
2019-07-13T08:30:32Z,42.805,6.029,13.2953,4.59953,2469.844,2019-7-13T10:30:50Z
2019-07-13T08:33:35Z,42.805,6.029,13.2958,4.59954,2469.83,2019-7-13T10:33:53Z
2019-07-13T08:36:39Z,42.805,6.029,13.2959,4.59954,2469.83,2019-7-13T10:36:57Z
2019-07-13T08:39:42Z,42.805,6.029,13.2958,4.59954,2469.853,2019-7-13T10:40:00Z
2019-07-13T08:42:45Z,42.805,6.029,13.2958,4.59953,2469.806,2019-7-13T10:43:03Z
2019-07-13T08:45:49Z,42.805,6.029,13.2958,4.59953,2469.844,2019-7-13T10:46:07Z
2019-07-13T08:48:52Z,42.805,6.029,13.2953,4.59954,2469.806,2019-7-13T10:49:10Z
2019-07-13T08:51:55Z,42.805,6.029,13.2956,4.59953,2469.844,2019-7-13T10:52:13Z
2019-07-13T08:54:58Z,42.805,6.029,13.2958,4.59953,2469.844,2019-7-13T10:55:17Z
2019-07-13T08:58:02Z,42.805,6.029,13.2952,4.59954,2469.806,2019-7-13T10:58:20Z
2019-07-13T09:01:05Z,42.805,6.029,13.2958,4.59953,2469.821,2019-7-13T11:01:23Z
2019-07-13T09:04:08Z,42.805,6.029,13.2958,4.59952,2469.806,2019-7-13T11:04:26Z
2019-07-13T09:07:12Z,42.805,6.029,13.2954,4.59952,2469.783,2019-7-13T11:07:30Z
2019-07-13T09:10:15Z,42.805,6.029,13.2954,4.59952,2469.844,2019-7-13T11:10:33Z
2019-07-13T09:13:18Z,42.805,6.029,13.2955,4.59953,2469.806,2019-7-13T11:13:36Z
2019-07-13T09:16:22Z,42.805,6.029,13.2956,4.59953,2469.844,2019-7-13T11:16:40Z
2019-07-13T09:19:25Z,42.805,6.029,13.2955,4.59953,2469.821,2019-7-13T11:19:43Z
2019-07-13T09:22:28Z,42.805,6.029,13.2957,4.59954,2469.821,2019-7-13T11:22:46Z
2019-07-13T09:25:31Z,42.805,6.029,13.2958,4.59952,2469.83,2019-7-13T11:25:50Z
2019-07-13T09:28:35Z,42.805,6.029,13.2956,4.59952,2469.806,2019-7-13T11:28:53Z
2019-07-13T09:31:38Z,42.805,6.029,13.2959,4.59954,2469.797,2019-7-13T11:31:56Z
2019-07-13T09:34:41Z,42.805,6.029,13.2957,4.59952,2469.797,2019-7-13T11:34:59Z
2019-07-13T09:37:44Z,42.805,6.029,13.2955,4.59952,2469.806,2019-7-13T11:38:03Z
2019-07-13T09:40:48Z,42.805,6.029,13.2960,4.59952,2469.806,2019-7-13T11:41:06Z
2019-07-13T09:43:51Z,42.805,6.029,13.2959,4.59954,2469.806,2019-7-13T11:44:09Z
2019-07-13T09:46:54Z,42.805,6.029,13.2953,4.59951,2469.821,2019-7-13T11:47:12Z
2019-07-13T09:49:57Z,42.805,6.029,13.2955,4.59952,2469.806,2019-7-13T11:50:15Z
2019-07-13T09:53:00Z,42.805,6.029,13.2950,4.59952,2469.783,2019-7-13T11:53:19Z
2019-07-13T09:56:04Z,42.805,6.029,13.2955,4.59953,2469.783,2019-7-13T11:56:22Z
2019-07-13T09:59:07Z,42.805,6.029,13.2957,4.59952,2469.867,2019-7-13T11:59:25Z
2019-07-13T10:02:10Z,42.805,6.029,13.2955,4.59954,2469.806,2019-7-13T12:02:28Z
2019-07-13T10:05:13Z,42.805,6.029,13.2963,4.59952,2469.821,2019-7-13T12:05:31Z
2019-07-13T10:08:16Z,42.805,6.029,13.2960,4.59953,2469.783,2019-7-13T12:08:35Z
2019-07-13T10:11:20Z,42.805,6.029,13.2955,4.59952,2469.773,2019-7-13T12:11:38Z
2019-07-13T10:14:23Z,42.805,6.029,13.2958,4.59953,2469.76,2019-7-13T12:14:41Z
2019-07-13T10:17:26Z,42.805,6.029,13.2956,4.59951,2469.797,2019-7-13T12:17:44Z
2019-07-13T10:20:29Z,42.805,6.029,13.2954,4.59953,2469.821,2019-7-13T12:20:47Z
2019-07-13T10:23:32Z,42.805,6.029,13.2953,4.59952,2469.797,2019-7-13T12:23:51Z
2019-07-13T10:26:36Z,42.805,6.029,13.2955,4.59951,2469.797,2019-7-13T12:26:54Z
2019-07-13T10:29:39Z,42.805,6.029,13.2956,4.59956,2469.783,2019-7-13T12:29:57Z
2019-07-13T10:32:42Z,42.805,6.029,13.2955,4.59951,2469.76,2019-7-13T12:33:00Z
2019-07-13T10:35:45Z,42.805,6.029,13.2957,4.59951,2469.76,2019-7-13T12:36:03Z
2019-07-13T10:38:48Z,42.805,6.029,13.2954,4.59952,2469.783,2019-7-13T12:39:07Z
2019-07-13T10:41:52Z,42.805,6.029,13.2957,4.59951,2469.773,2019-7-13T12:42:10Z
2019-07-13T10:44:55Z,42.805,6.029,13.2957,4.59951,2469.75,2019-7-13T12:45:13Z
2019-07-13T10:47:58Z,42.805,6.029,13.2957,4.59951,2469.76,2019-7-13T12:48:16Z
2019-07-13T10:51:01Z,42.805,6.029,13.2957,4.59951,2469.75,2019-7-13T12:51:19Z
2019-07-13T10:54:04Z,42.805,6.029,13.2959,4.59951,2469.783,2019-7-13T12:54:23Z
2019-07-13T10:57:08Z,42.805,6.029,13.2956,4.59951,2469.737,2019-7-13T12:57:26Z
2019-07-13T11:00:11Z,42.805,6.029,13.2957,4.59952,2469.773,2019-7-13T13:00:29Z
2019-07-13T11:03:14Z,42.805,6.029,13.2957,4.59952,2469.76,2019-7-13T13:03:32Z
2019-07-13T11:06:17Z,42.805,6.029,13.2957,4.59953,2469.76,2019-7-13T13:06:35Z
2019-07-13T11:09:20Z,42.805,6.029,13.2955,4.59951,2469.797,2019-7-13T13:09:39Z
2019-07-13T11:12:23Z,42.805,6.029,13.2956,4.59951,2469.783,2019-7-13T13:12:42Z
2019-07-13T11:15:27Z,42.805,6.029,13.2952,4.59951,2469.773,2019-7-13T13:15:45Z
2019-07-13T11:18:30Z,42.805,6.029,13.2957,4.59951,2469.76,2019-7-13T13:18:48Z
2019-07-13T11:21:33Z,42.805,6.029,13.2954,4.59952,2469.783,2019-7-13T13:21:51Z
2019-07-13T11:24:36Z,42.805,6.029,13.2957,4.59951,2469.773,2019-7-13T13:24:55Z
2019-07-13T11:27:40Z,42.805,6.029,13.2956,4.59951,2469.773,2019-7-13T13:27:58Z
2019-07-13T11:30:43Z,42.805,6.029,13.2954,4.59951,2469.773,2019-7-13T13:31:01Z
2019-07-13T11:33:46Z,42.805,6.029,13.2957,4.59951,2469.783,2019-7-13T13:34:04Z
2019-07-13T11:36:49Z,42.805,6.029,13.2956,4.59951,2469.737,2019-7-13T13:37:08Z
2019-07-13T11:39:52Z,42.805,6.029,13.2955,4.59952,2469.76,2019-7-13T13:40:11Z
2019-07-13T11:42:56Z,42.805,6.029,13.2958,4.59951,2469.783,2019-7-13T13:43:14Z
2019-07-13T11:45:59Z,42.805,6.029,13.2955,4.59951,2469.783,2019-7-13T13:46:17Z
2019-07-13T11:49:02Z,42.805,6.029,13.2952,4.59951,2469.76,2019-7-13T13:49:20Z
2019-07-13T11:52:05Z,42.805,6.029,13.2954,4.59953,2469.797,2019-7-13T13:52:24Z
2019-07-13T11:55:09Z,42.805,6.029,13.2954,4.59952,2469.797,2019-7-13T13:55:27Z
2019-07-13T11:58:12Z,42.805,6.029,13.2952,4.59951,2469.797,2019-7-13T13:58:30Z
2019-07-13T12:01:15Z,42.805,6.029,13.2957,4.59954,2469.76,2019-7-13T14:01:33Z
2019-07-13T12:04:18Z,42.805,6.029,13.2954,4.59951,2469.806,2019-7-13T14:04:36Z
2019-07-13T12:07:21Z,42.805,6.029,13.2956,4.59952,2469.783,2019-7-13T14:07:40Z
2019-07-13T12:10:25Z,42.805,6.029,13.2954,4.59951,2469.76,2019-7-13T14:10:43Z
2019-07-13T12:13:28Z,42.805,6.029,13.2957,4.59951,2469.773,2019-7-13T14:13:46Z
2019-07-13T12:16:31Z,42.805,6.029,13.2955,4.59951,2469.76,2019-7-13T14:16:49Z
2019-07-13T12:19:34Z,42.805,6.029,13.2957,4.59953,2469.76,2019-7-13T14:19:52Z
2019-07-13T12:22:37Z,42.805,6.029,13.2955,4.59951,2469.76,2019-7-13T14:22:56Z
2019-07-13T12:25:41Z,42.805,6.029,13.2957,4.59951,2469.773,2019-7-13T14:25:59Z
2019-07-13T12:28:44Z,42.805,6.029,13.2955,4.59951,2469.75,2019-7-13T14:29:02Z
2019-07-13T12:31:47Z,42.805,6.029,13.2954,4.59951,2469.821,2019-7-13T14:32:05Z
2019-07-13T12:34:50Z,42.805,6.029,13.2951,4.59951,2469.76,2019-7-13T14:35:09Z
2019-07-13T12:37:53Z,42.805,6.029,13.2955,4.59951,2469.76,2019-7-13T14:38:12Z
2019-07-13T12:40:57Z,42.805,6.029,13.2952,4.59951,2469.797,2019-7-13T14:41:15Z
2019-07-13T12:44:00Z,42.805,6.029,13.2952,4.59951,2469.783,2019-7-13T14:44:18Z
2019-07-13T12:47:03Z,42.805,6.029,13.2956,4.59951,2469.806,2019-7-13T14:47:21Z
2019-07-13T12:50:06Z,42.805,6.029,13.2955,4.59951,2469.783,2019-7-13T14:50:24Z
2019-07-13T12:53:09Z,42.805,6.029,13.2956,4.59951,2469.76,2019-7-13T14:53:28Z
2019-07-13T12:56:13Z,42.805,6.029,13.2955,4.59950,2469.806,2019-7-13T14:56:31Z
2019-07-13T12:59:16Z,42.805,6.029,13.2952,4.59950,2469.806,2019-7-13T14:59:34Z
2019-07-13T13:02:19Z,42.805,6.029,13.2953,4.59951,2469.806,2019-7-13T15:02:37Z
2019-07-13T13:05:22Z,42.805,6.029,13.2955,4.59951,2469.821,2019-7-13T15:05:40Z
2019-07-13T13:08:25Z,42.805,6.029,13.2952,4.59951,2469.783,2019-7-13T15:08:44Z
2019-07-13T13:11:29Z,42.805,6.029,13.2954,4.59951,2469.821,2019-7-13T15:11:47Z
2019-07-13T13:14:32Z,42.805,6.029,13.2953,4.59951,2469.783,2019-7-13T15:14:50Z
2019-07-13T13:17:35Z,42.805,6.029,13.2955,4.59950,2469.844,2019-7-13T15:17:53Z
2019-07-13T13:20:38Z,42.805,6.029,13.2953,4.59951,2469.844,2019-7-13T15:20:56Z
2019-07-13T13:23:41Z,42.805,6.029,13.2959,4.59951,2469.773,2019-7-13T15:24:00Z
2019-07-13T13:26:45Z,42.805,6.029,13.2955,4.59951,2469.783,2019-7-13T15:27:03Z
2019-07-13T13:29:48Z,42.805,6.029,13.2954,4.59951,2469.821,2019-7-13T15:30:06Z
2019-07-13T13:32:51Z,42.805,6.029,13.2955,4.59951,2469.797,2019-7-13T15:33:09Z
2019-07-13T13:35:55Z,42.805,6.029,13.2953,4.59951,2469.844,2019-7-13T15:36:13Z
2019-07-13T13:38:58Z,42.805,6.029,13.2953,4.59951,2469.83,2019-7-13T15:39:16Z
2019-07-13T13:42:01Z,42.805,6.029,13.2956,4.59951,2469.83,2019-7-13T15:42:19Z
2019-07-13T13:45:04Z,42.805,6.029,13.2953,4.59951,2469.806,2019-7-13T15:45:22Z
2019-07-13T13:48:07Z,42.805,6.029,13.2957,4.59951,2469.83,2019-7-13T15:48:26Z
2019-07-13T13:51:10Z,42.805,6.029,13.2952,4.59951,2469.83,2019-7-13T15:51:29Z
2019-07-13T13:54:14Z,42.805,6.029,13.2953,4.59951,2469.844,2019-7-13T15:54:32Z
2019-07-13T13:57:17Z,42.805,6.029,13.2952,4.59951,2469.83,2019-7-13T15:57:35Z
2019-07-13T14:00:20Z,42.805,6.029,13.2948,4.59951,2469.83,2019-7-13T16:00:38Z
2019-07-13T14:03:23Z,42.805,6.029,13.2952,4.59951,2469.83,2019-7-13T16:03:42Z
2019-07-13T14:06:27Z,42.805,6.029,13.2951,4.59950,2469.867,2019-7-13T16:06:45Z
2019-07-13T14:09:30Z,42.805,6.029,13.2950,4.59951,2469.853,2019-7-13T16:09:48Z
2019-07-13T14:12:33Z,42.805,6.029,13.2952,4.59951,2469.83,2019-7-13T16:12:51Z
2019-07-13T14:15:36Z,42.805,6.029,13.2957,4.59951,2469.844,2019-7-13T16:15:54Z
2019-07-13T14:18:39Z,42.805,6.029,13.2949,4.59951,2469.83,2019-7-13T16:18:58Z
2019-07-13T14:21:43Z,42.805,6.029,13.2952,4.59951,2469.853,2019-7-13T16:22:01Z
2019-07-13T14:24:46Z,42.805,6.029,13.2956,4.59951,2469.83,2019-7-13T16:25:04Z
2019-07-13T14:27:49Z,42.805,6.029,13.2953,4.59951,2469.844,2019-7-13T16:28:07Z
2019-07-13T14:30:52Z,42.805,6.029,13.2953,4.59951,2469.876,2019-7-13T16:31:10Z
2019-07-13T14:33:55Z,42.805,6.029,13.2953,4.59952,2469.876,2019-7-13T16:34:14Z
2019-07-13T14:36:59Z,42.805,6.029,13.2953,4.59951,2469.9,2019-7-13T16:37:17Z
2019-07-13T14:40:02Z,42.805,6.029,13.2953,4.59951,2469.876,2019-7-13T16:40:20Z
2019-07-13T14:43:05Z,42.805,6.029,13.2953,4.59951,2469.89,2019-7-13T16:43:23Z
2019-07-13T14:46:08Z,42.805,6.029,13.2950,4.59951,2469.89,2019-7-13T16:46:26Z
2019-07-13T14:49:11Z,42.805,6.029,13.2954,4.59951,2469.853,2019-7-13T16:49:30Z
2019-07-13T14:52:14Z,42.805,6.029,13.2953,4.59951,2469.876,2019-7-13T16:52:33Z
2019-07-13T14:55:18Z,42.805,6.029,13.2955,4.59951,2469.876,2019-7-13T16:55:36Z
2019-07-13T14:58:21Z,42.805,6.029,13.2953,4.59951,2469.914,2019-7-13T16:58:39Z
2019-07-13T15:01:24Z,42.805,6.029,13.2957,4.59950,2469.89,2019-7-13T17:01:42Z
2019-07-13T15:04:27Z,42.805,6.029,13.2954,4.59951,2469.876,2019-7-13T17:04:45Z
2019-07-13T15:07:30Z,42.805,6.029,13.2950,4.59951,2469.923,2019-7-13T17:07:49Z
2019-07-13T15:10:34Z,42.805,6.029,13.2954,4.59951,2469.867,2019-7-13T17:10:52Z
2019-07-13T15:13:37Z,42.805,6.029,13.2951,4.59951,2469.9,2019-7-13T17:13:55Z